Chillicothe, MO

4:59 PM CST on November 13, 2019 (GMT -0600)
Chillicothe

Weather History for KCDJ - September, 2019

Change the Weather History Date:

Sunday, September 29, 2019

  Actual Average (WUND) Record (WUND)
Temperature  
Mean Temperature 72 °F -  
Max Temperature 79 °F - - (-1)
Min Temperature 64 °F - - (-1)
Cooling Degree Days 6    
Growing Degree Days 22 (Base 50)    
Moisture  
Dew Point 68 °F    
Average Humidity 92    
Maximum Humidity 100    
Minimum Humidity 79    
Precipitation  
Precipitation 0.36 in - - ()
Sea Level Pressure  
Sea Level Pressure 29.99 in    
Wind  
Wind Speed 3 mph (East)    
Max Wind Speed 13 mph    
Max Gust Speed 22 mph    
Averages and records for this station are not official NWS values.
T = Trace of Precipitation, MM = Missing Value Source: NWS Daily Summary

Daily Weather History Graph

Daily Weather History Graph

Search for Another Location

Airport or City:

Astronomy

Sep. 29, 2019 Rise Set
Actual Time 7:08 AM CDT 7:00 PM CDT
Civil Twilight 6:41 AM CDT 7:27 PM CDT
Nautical Twilight 6:10 AM CDT 7:58 PM CDT
Astronomical Twilight 5:38 AM CDT 8:30 PM CDT
Moon 7:59 AM CDT (9/29) 8:01 PM CDT (9/29)
Length of Visible Light 12h 45m
Length of Day
11h 51m
New Moon, 1% of the Moon is Illuminated
Sep 29
New Moon
Oct 5
First Quarter
Oct 13
Full
Oct 21
Last Quarter
Oct 27
New

Hourly Weather History & Observations

Time (CDT) Temp. Dew Point Humidity Pressure Visibility Wind Dir Wind Speed Gust Speed Precip Events Conditions
12:52 AM 64.9 °F 64.0 °F 97% 30.00 in - Calm Calm - N/A   Unknown
1:52 AM 64.9 °F 64.0 °F 97% 30.01 in - Calm Calm - N/A   Unknown
2:52 AM 64.9 °F 64.9 °F 100% 30.01 in - ESE 3.5 mph - N/A   Unknown
3:52 AM 66.0 °F 66.0 °F 100% 30.00 in - Calm Calm - N/A   Unknown
4:52 AM 66.0 °F 66.0 °F 100% 30.00 in - SE 4.6 mph - N/A   Unknown
5:52 AM 66.9 °F 66.9 °F 100% 30.01 in - Variable 3.5 mph - N/A   Unknown
6:52 AM 66.9 °F 66.9 °F 100% 30.00 in - SE 4.6 mph - 0.22 in   Unknown
7:52 AM 68.0 °F 66.9 °F 96% 30.00 in - North 3.5 mph - N/A   Unknown
8:52 AM 69.1 °F 66.9 °F 93% 30.01 in - Variable 5.8 mph - N/A   Unknown
9:52 AM 70.0 °F 69.1 °F 97% 30.04 in - NNW 5.8 mph - 0.02 in   Unknown
10:52 AM 68.0 °F 66.9 °F 96% 30.04 in - Variable 4.6 mph - 0.12 in   Unknown
11:52 AM 71.1 °F 66.9 °F 87% 30.02 in - East 5.8 mph - N/A   Unknown
12:52 PM 72.0 °F 68.0 °F 87% 30.01 in - East 5.8 mph - N/A   Unknown
1:52 PM 77.0 °F 70.0 °F 79% 29.99 in - NE 6.9 mph - N/A   Unknown
2:52 PM 73.9 °F 68.0 °F 82% 29.99 in - NNE 12.7 mph 21.9 mph N/A   Unknown
3:52 PM 77.0 °F 70.0 °F 79% 29.97 in - East 6.9 mph - N/A   Unknown
4:52 PM 79.0 °F 72.0 °F 79% 29.96 in - Variable 5.8 mph - N/A   Unknown
5:52 PM 78.1 °F 72.0 °F 81% 29.95 in - ESE 8.1 mph - N/A   Unknown
6:52 PM 75.9 °F 72.0 °F 87% 29.95 in - Variable 5.8 mph - N/A   Unknown
7:52 PM 73.9 °F 71.1 °F 91% 29.96 in - Calm Calm - N/A   Unknown
8:52 PM 73.0 °F 71.1 °F 93% 29.96 in - SE 4.6 mph - N/A   Unknown
9:52 PM 73.0 °F 71.1 °F 93% 29.96 in - Variable 4.6 mph - N/A   Unknown
10:52 PM 72.0 °F 70.0 °F 93% 29.97 in - Calm Calm - N/A   Unknown
11:52 PM 73.9 °F 71.1 °F 91% 29.96 in - South 3.5 mph - N/A   Unknown